This is the latest recevied weather packets stored in our database for station/object OK1FET-5. If no packets are shown the sender has not sent any weather packets the latest 10 day(s).
| Time | Temp. | Humidity | Pressure | Rain* | Wind** | Luminosity | Snow |
|---|---|---|---|---|---|---|---|
| 1777815175 | 28.33° C | 22% | 1014.3 hPa | - | - | - | - |
| 1777814879 | 28.33° C | 23% | 1014.3 hPa | - | - | - | - |
| 1777814583 | 28.89° C | 22% | 1014.5 hPa | - | - | - | - |
| 1777814288 | 28.33° C | 24% | 1014.6 hPa | - | - | - | - |
| 1777813992 | 28.33° C | 22% | 1014.7 hPa | - | - | - | - |
| 1777813695 | 28.33° C | 24% | 1014.7 hPa | - | - | - | - |
| 1777813399 | 28.33° C | 24% | 1014.7 hPa | - | - | - | - |
| 1777813103 | 28.33° C | 23% | 1014.8 hPa | - | - | - | - |
| 1777812808 | 28.33° C | 24% | 1014.8 hPa | - | - | - | - |
| 1777812512 | 27.78° C | 23% | 1015 hPa | - | - | - | - |
| 1777812216 | 27.78° C | 22% | 1015 hPa | - | - | - | - |
| 1777811624 | 27.78° C | 24% | 1015.1 hPa | - | - | - | - |
| 1777811328 | 27.78° C | 24% | 1015.2 hPa | - | - | - | - |
| 1777811032 | 27.22° C | 23% | 1015.2 hPa | - | - | - | - |
| 1777810736 | 27.78° C | 23% | 1015.3 hPa | - | - | - | - |
| 1777810440 | 27.22° C | 24% | 1015.3 hPa | - | - | - | - |
| 1777809849 | 27.22° C | 24% | 1015.4 hPa | - | - | - | - |
| 1777809257 | 27.22° C | 25% | 1015.5 hPa | - | - | - | - |
| 1777808961 | 27.22° C | 22% | 1015.6 hPa | - | - | - | - |
| 1777808665 | 27.22° C | 25% | 1015.8 hPa | - | - | - | - |
| 1777808370 | 26.67° C | 25% | 1015.7 hPa | - | - | - | - |
| 1777808074 | 26.67° C | 24% | 1015.8 hPa | - | - | - | - |
| 1777807778 | 26.67° C | 26% | 1015.9 hPa | - | - | - | - |
| 1777807482 | 27.22° C | 24% | 1015.8 hPa | - | - | - | - |
| 1777807186 | 27.22° C | 25% | 1016 hPa | - | - | - | - |
* Rain since midnight (hover to see other rain measurements)
** Current wind speed in m/s (hover to see current wind gust speed)